User: anonymous   Login
Location: Oronoko Observatory
(41.9167°N, 86.3833°W)
Time: 15:25:08
(UTC-04:00)
Language:

PAYLOAD A - Orbit

View from above orbital plane
View from above orbital plane
View from above satellite
View from above satellite

Ground track
Ground track

The orbit data is extracted from the following two-line orbital elements,

1 27840U 03031A   15211.78087193  .00000022  00000-0  19945-4 0  9997
2 27840 098.2065 228.3726 0099027 032.0528 071.3075 14.38815554634460
Epoch (UTC): 30 July 2015 18:44:27
Eccentricity: 0.0099027
inclination: 98.2065°
perigee height: 692 km
apogee height: 833 km
right ascension of ascending node: 228.3726°
argument of perigee: 32.0528°
revolutions per day: 14.38815554
mean anomaly at epoch: 71.3075°
orbit number at epoch: 63446

The dashed part of the orbit path shows where the satellite is in the earth's shadow,  

DLR